• In Österreich
  • Länderverzeichnis
  • Für 7 Tage
  • Wassertemperatur
  • Satellitenkarten
  • Wetterkarte
  • News
  • Widgets
  • user-avatar
    Anmelden

    Stündliche Wetter Santiago del Estero

    Heute, 17 Dezember, Sonntag

    Zeit Temperatur Niederschläge Wind Luftdruck Luftfeuchtigkeit
    00:00 +37°C° 0 mm 5 m/S 731 mmHg 31%
    01:00 +36°C° 0 mm 5 m/S 731 mmHg 33%
    02:00 +36°C° 0 mm 5 m/S 731 mmHg 34%
    03:00 +35°C° 0 mm 5 m/S 731 mmHg 35%
    04:00 +35°C° 0 mm 5 m/S 732 mmHg 37%
    05:00 +34°C° 0 mm 5 m/S 732 mmHg 38%
    06:00 +33°C° 0,5 mm 7 m/S 734 mmHg 46%
    07:00 +32°C° 0,5 mm 9 m/S 736 mmHg 54%
    08:00 +29°C° 0,5 mm 11 m/S 738 mmHg 62%
    09:00 +29°C° 0,4 mm 11 m/S 740 mmHg 58%
    10:00 +28°C° 0,4 mm 11 m/S 742 mmHg 54%
    11:00 +27°C° 0,4 mm 11 m/S 744 mmHg 51%
    12:00 +28°C° 0,3 mm 10 m/S 744 mmHg 46%
    13:00 +28°C° 0,3 mm 9 m/S 745 mmHg 42%
    14:00 +29°C° 0,3 mm 8 m/S 745 mmHg 37%
    15:00 +29°C° 0 mm 8 m/S 745 mmHg 34%
    16:00 +30°C° 0 mm 7 m/S 744 mmHg 31%
    17:00 +32°C° 0 mm 6 m/S 743 mmHg 29%
    18:00 +29°C° 0 mm 5 m/S 744 mmHg 29%
    19:00 +28°C° 0 mm 4 m/S 744 mmHg 29%
    20:00 +27°C° 0 mm 2 m/S 745 mmHg 29%
    21:00 +26°C° 0 mm 3 m/S 746 mmHg 28%
    22:00 +25°C° 0 mm 3 m/S 746 mmHg 27%
    23:00 +25°C° 0 mm 3 m/S 747 mmHg 26%

    Morgen, 18 Dezember, Montag

    Zeit Temperatur Niederschläge Wind Luftdruck Luftfeuchtigkeit
    00:00 +24°C° 0 mm 3 m/S 746 mmHg 29%
    01:00 +22°C° 0 mm 3 m/S 746 mmHg 32%
    02:00 +21°C° 0 mm 2 m/S 746 mmHg 34%
    03:00 +21°C° 0 mm 2 m/S 746 mmHg 37%
    04:00 +20°C° 0 mm 2 m/S 745 mmHg 39%
    05:00 +20°C° 0 mm 2 m/S 745 mmHg 42%
    06:00 +23°C° 0 mm 2 m/S 745 mmHg 41%
    07:00 +24°C° 0 mm 3 m/S 746 mmHg 41%
    08:00 +25°C° 0 mm 3 m/S 746 mmHg 40%
    09:00 +27°C° 0 mm 3 m/S 746 mmHg 37%
    10:00 +29°C° 0 mm 2 m/S 745 mmHg 34%
    11:00 +31°C° 0 mm 2 m/S 745 mmHg 31%
    12:00 +32°C° 0 mm 2 m/S 744 mmHg 30%
    13:00 +34°C° 0 mm 3 m/S 743 mmHg 28%
    14:00 +36°C° 0 mm 3 m/S 742 mmHg 27%
    15:00 +36°C° 0 mm 3 m/S 741 mmHg 28%
    16:00 +35°C° 0 mm 4 m/S 740 mmHg 30%
    17:00 +35°C° 0 mm 4 m/S 740 mmHg 32%
    18:00 +34°C° 0 mm 4 m/S 740 mmHg 35%
    19:00 +31°C° 0 mm 3 m/S 740 mmHg 39%
    20:00 +30°C° 0 mm 2 m/S 741 mmHg 43%
    21:00 +29°C° 0 mm 2 m/S 741 mmHg 44%
    22:00 +29°C° 0 mm 2 m/S 742 mmHg 45%
    23:00 +28°C° 0 mm 2 m/S 742 mmHg 46%

    übermorgen, 19 Dezember, Dienstag

    Zeit Temperatur Niederschläge Wind Luftdruck Luftfeuchtigkeit
    00:00 +28°C° 0 mm 2 m/S 742 mmHg 48%
    01:00 +27°C° 0 mm 2 m/S 741 mmHg 51%
    02:00 +27°C° 0 mm 2 m/S 741 mmHg 53%
    03:00 +27°C° 0 mm 2 m/S 741 mmHg 56%
    04:00 +26°C° 0 mm 2 m/S 741 mmHg 59%
    05:00 +26°C° 0 mm 2 m/S 741 mmHg 61%
    06:00 +27°C° 0 mm 2 m/S 741 mmHg 59%
    07:00 +29°C° 0 mm 2 m/S 742 mmHg 57%
    08:00 +30°C° 0 mm 2 m/S 742 mmHg 54%
    09:00 +31°C° 0 mm 3 m/S 742 mmHg 51%
    10:00 +34°C° 0 mm 4 m/S 741 mmHg 49%
    11:00 +35°C° 0 mm 4 m/S 741 mmHg 46%
    12:00 +36°C° 0 mm 4 m/S 740 mmHg 42%
    13:00 +38°C° 0 mm 4 m/S 740 mmHg 39%
    14:00 +40°C° 0 mm 4 m/S 739 mmHg 35%
    15:00 +38°C° 0 mm 4 m/S 739 mmHg 37%
    16:00 +38°C° 0 mm 4 m/S 738 mmHg 39%
    17:00 +37°C° 0 mm 4 m/S 738 mmHg 41%
    18:00 +36°C° 0,2 mm 4 m/S 739 mmHg 46%
    19:00 +34°C° 0,2 mm 4 m/S 739 mmHg 51%
    20:00 +33°C° 0,2 mm 4 m/S 739 mmHg 56%
    21:00 +30°C° 0,9 mm 4 m/S 740 mmHg 65%
    22:00 +28°C° 0,9 mm 4 m/S 740 mmHg 75%
    23:00 +27°C° 0,9 mm 5 m/S 741 mmHg 84%

    20 Dezember, Mittwoch

    Zeit Temperatur Niederschläge Wind Luftdruck Luftfeuchtigkeit
    00:00 +26°C° 0,3 mm 4 m/S 741 mmHg 86%
    01:00 +25°C° 0,3 mm 4 m/S 740 mmHg 87%
    02:00 +25°C° 0,3 mm 3 m/S 740 mmHg 89%
    03:00 +24°C° 0,1 mm 3 m/S 740 mmHg 89%
    04:00 +24°C° 0,1 mm 3 m/S 740 mmHg 89%
    05:00 +24°C° 0,1 mm 3 m/S 740 mmHg 89%
    06:00 +24°C° 0 mm 2 m/S 740 mmHg 86%
    07:00 +25°C° 0 mm 2 m/S 741 mmHg 83%
    08:00 +26°C° 0 mm 2 m/S 741 mmHg 80%
    09:00 +27°C° 0,1 mm 2 m/S 741 mmHg 75%
    10:00 +29°C° 0,1 mm 2 m/S 740 mmHg 69%
    11:00 +31°C° 0,1 mm 2 m/S 740 mmHg 63%
    12:00 +32°C° 0 mm 2 m/S 739 mmHg 58%
    13:00 +35°C° 0 mm 2 m/S 738 mmHg 53%
    14:00 +37°C° 0 mm 3 m/S 737 mmHg 47%
    15:00 +37°C° 0 mm 3 m/S 737 mmHg 46%
    16:00 +37°C° 0 mm 3 m/S 736 mmHg 46%
    17:00 +37°C° 0 mm 3 m/S 736 mmHg 45%
    18:00 +36°C° 0 mm 3 m/S 736 mmHg 49%
    19:00 +34°C° 0 mm 2 m/S 736 mmHg 54%
    20:00 +32°C° 0 mm 2 m/S 736 mmHg 58%
    21:00 +31°C° 0 mm 2 m/S 737 mmHg 61%
    22:00 +30°C° 0 mm 2 m/S 737 mmHg 64%
    23:00 +30°C° 0 mm 2 m/S 737 mmHg 68%

    21 Dezember, Donnerstag

    Zeit Temperatur Niederschläge Wind Luftdruck Luftfeuchtigkeit
    00:00 +29°C° 0 mm 2 m/S 737 mmHg 70%
    01:00 +29°C° 0 mm 2 m/S 736 mmHg 73%
    02:00 +28°C° 0 mm 2 m/S 736 mmHg 75%
    03:00 +28°C° 0 mm 2 m/S 736 mmHg 77%
    04:00 +27°C° 0 mm 2 m/S 736 mmHg 78%
    05:00 +27°C° 0 mm 2 m/S 736 mmHg 80%
    06:00 +29°C° 0 mm 2 m/S 737 mmHg 74%
    07:00 +30°C° 0 mm 3 m/S 737 mmHg 67%
    08:00 +33°C° 0 mm 4 m/S 738 mmHg 61%
    09:00 +35°C° 0 mm 4 m/S 737 mmHg 55%
    10:00 +36°C° 0 mm 4 m/S 737 mmHg 49%
    11:00 +38°C° 0 mm 4 m/S 737 mmHg 42%
    12:00 +38°C° 0 mm 4 m/S 736 mmHg 42%
    13:00 +38°C° 0 mm 4 m/S 736 mmHg 42%
    14:00 +38°C° 0 mm 4 m/S 735 mmHg 41%
    15:00 +39°C° 0 mm 3 m/S 735 mmHg 40%
    16:00 +39°C° 0 mm 3 m/S 734 mmHg 39%
    17:00 +39°C° 0 mm 3 m/S 734 mmHg 38%
    18:00 +38°C° 0 mm 3 m/S 734 mmHg 42%
    19:00 +37°C° 0 mm 3 m/S 735 mmHg 45%
    20:00 +35°C° 0 mm 2 m/S 735 mmHg 49%
    21:00 +35°C° 0 mm 2 m/S 735 mmHg 51%
    22:00 +34°C° 0 mm 2 m/S 736 mmHg 54%
    23:00 +32°C° 0 mm 2 m/S 736 mmHg 56%

    22 Dezember, Freitag

    Zeit Temperatur Niederschläge Wind Luftdruck Luftfeuchtigkeit
    00:00 +32°C° 0,2 mm 2 m/S 735 mmHg 61%
    01:00 +31°C° 0,2 mm 2 m/S 735 mmHg 65%
    02:00 +30°C° 0,2 mm 2 m/S 734 mmHg 70%
    03:00 +30°C° 0 mm 2 m/S 734 mmHg 71%
    04:00 +29°C° 0 mm 2 m/S 734 mmHg 72%
    05:00 +29°C° 0 mm 2 m/S 734 mmHg 74%
    06:00 +30°C° 0 mm 2 m/S 735 mmHg 69%
    07:00 +33°C° 0 mm 3 m/S 735 mmHg 64%
    08:00 +34°C° 0 mm 4 m/S 735 mmHg 59%
    09:00 +36°C° 0 mm 4 m/S 735 mmHg 52%
    10:00 +38°C° 0 mm 4 m/S 735 mmHg 46%
    11:00 +41°C° 0 mm 5 m/S 734 mmHg 40%
    12:00 +41°C° 0 mm 5 m/S 734 mmHg 39%
    13:00 +41°C° 0 mm 5 m/S 733 mmHg 39%
    14:00 +41°C° 0 mm 4 m/S 732 mmHg 38%
    15:00 +41°C° 0 mm 4 m/S 732 mmHg 38%
    16:00 +41°C° 0 mm 4 m/S 732 mmHg 37%
    17:00 +41°C° 0 mm 4 m/S 732 mmHg 37%
    18:00 +39°C° 0 mm 3 m/S 732 mmHg 40%
    19:00 +37°C° 0 mm 3 m/S 732 mmHg 43%
    20:00 +36°C° 0 mm 2 m/S 733 mmHg 47%
    21:00 +35°C° 0,5 mm 2 m/S 733 mmHg 52%
    22:00 +34°C° 0,5 mm 2 m/S 734 mmHg 57%
    23:00 +32°C° 0,5 mm 2 m/S 734 mmHg 62%
    Mehr zeigen